Regional Weather Roundup
Issued by NWS Newport/Morehead, NC

Current Version | Previous Version | Text Only | Print | Product List | Glossary On
Versions: 1 2 3 4 5 6 7 8 9 10 11 12 13 14 15 16 17 18 19 20 21 22 23 24 25 26 27 28 29 30 31 32 33 34 35 36 37 38 39 40 41 42 43 44 45 46 47 48 49 50
000
ASUS42 KMHX 250824
RWRMHX
WEATHER ROUNDUP FOR EASTERN NORTH CAROLINA
NATIONAL WEATHER SERVICE NEWPORT/MOREHEAD CITY NC
400 AM EDT SAT APR 25 2015

NOTE: "FAIR" INDICATES FEW OR NO CLOUDS BELOW 12,000 FEET
WITH NO SIGNIFICANT WEATHER AND/OR OBSTRUCTIONS TO VISIBILITY

NCZ015>017-031-032-045>047-102-103-250900-
NORTH COAST

CITY           SKY/WX    TMP DP  RH WIND       PRES   REMARKS
EDENTON        PTCLDY    50  39  67 CALM      29.94R
ELIZABETH CITY PTCLDY    50  45  83 CALM      29.95R
KITTY HAWK     SUNNY     50  45  83 E3        29.92S
MANTEO         CLEAR     48  44  88 NE3       29.94S

$$

NCZ045>047-081-094-103-104-250900-
CENTRAL COAST

CITY           SKY/WX    TMP DP  RH WIND       PRES   REMARKS
FRISCO         CLEAR     56  44  64 W8        29.93S
SWANQUARTER      N/A     59 N/A N/A W7G14     29.88S

$$

NCZ095-097-098-100-101-250900-
SOUTHERN COAST

CITY           SKY/WX    TMP DP  RH WIND       PRES   REMARKS
BEAUFORT       PTCLDY    58  52  80 W3        29.95R
CEDAR ISLAND     N/A     57 N/A N/A SW8       29.97S
JACKSONVILLE   PTCLDY    51  46  83 W5        29.95R
PINEY ISLAND   MOSUNNY  N/A N/A N/A SW8       29.94R
WILMINGTON     PTCLDY    51  47  86 CALM      29.95S


$$

NCZ011>013-027>030-043-044-078>080-089-090>093-098-250900-
COASTAL PLAIN

CITY           SKY/WX    TMP DP  RH WIND       PRES   REMARKS
AHOSKIE        MOCLDY    42  38  87 CALM      29.94F
CLINTON        CLOUDY    50  46  84 CALM      29.94F
ELIZABETHTOWN  MOCLDY    54  45  71 CALM      29.93F
GOLDSBORO      CLOUDY    52  43  71 CALM      29.92S
GREENVILLE     PTCLDY    50  41  71 SW3       29.95S
HAVELOCK       PTCLDY    48  43  82 CALM      29.96R
KENANSVILLE    MOCLDY    47  44  87 CALM      29.95S
KINSTON        MOCLDY    49  44  83 SW5       29.94S
NEW BERN       PTCLDY    51  43  74 SW6       29.96R
RICHLANDS      MOCLDY    46  41  81 CALM      29.95F
ROCKY MOUNT    PTCLDY    44  41  89 CALM      29.93S
WASHINGTON     PTCLDY    50  41  71 SW6       29.93S
WHITEVILLE     MOCLDY    51  46  81 CALM      29.94F

$$

AMZ130-135-150-152-154-156-158-170-250-252-270-ANZ085-086-088-633-658-670-250900-
MARINE OBSERVATIONS

STATION/POSITION TIME  TEMP    WIND        PRES    WAVE   SWELL
                       AIR SEA DIR/SP/G            HT/PER HT/PER
                 (UTC) (F)     (DEG/KT/KT) (MB)    (FT/S) (FT/S)
CHESAPEAKE LIGHT 0800   53     190/ 11/ 12 1014.3
64 E VA BEACH    0750   56 62  220/  8/ 10 1013.5    2/14   2/14
DUCK             0800   53 55   80/  9/ 10 1012.8
2 E DUCK         0711      54                N/A     2/13   2/13
10 NE DUCK       NOT AVBL
OREGON INLET     0800   51 61   60/  2/  4 1013.5
HATTERAS CG      0800   60 65  240/  6/  9 1012.9
DIAMOND BUOY     0750   65 72  250/ 16/ 17 1013.4    4/ 8   3/ 8
CAPE LOOKOUT     0800   61     260/  8/ 10 1013.9
BEAUFORT LAB     0800   60 64  260/  2/  6 1013.1
27 SE WRIGHTSVLE 0800   63 71  250/ 12/ 16   N/A
5 SE WRIGHTSVLE  0708   64 65  240/ 14/ 16 1014.1
225 S CAPE HAT   0750   63 70   20/  2/  6 1016.2    5/ 8   5/ 8
41 SE CHARLESTON 0750   69 72  180/  8/ 10 1014.3    3/10   3/10

$$



USA.gov is the U.S. government's official web portal to all federal, state and local government web resources and services.